Flag for United Kingdom Weather past 2 weeks in Bolton, England, United Kingdom

Now
50 °F

Scattered clouds.


Feels Like: 44 °F
Forecast: 42 / 51 °F
Wind: 17 mph from West

Location: Manchester Airport

Current Time: May 28, 2015 at 9:25:01 AM

Latest Report: May 28, 2015 at 8:50 AM


Visibility: N/A

Pressure: 29.89 "Hg

Humidity: 76%

Dew point: 43 °F

Location of BoltonLocation

Historic Weather in Bolton — Graph

°F

Bolton temperature yesterday

Maximum temperature yesterday: 61 °F (at 1:20 PM)
Minimum temperature yesterday: 43 °F (at 12:20 AM)
Average temperature yesterday: 51 °F

Past Weeks' High & Low Weather Summary

 TemperatureHumidityPressure
High64 °F (May 23, 3:20 PM)100% (May 18, 4:50 AM)30.33 "Hg (May 18, 4:50 AM)
Low41 °F (May 19, 1:50 AM)42% (May 13, 2:50 PM)29.45 "Hg (May 19, 2:20 AM)
Average51 °F77%30.07 "Hg
* Reported May 13 8:20 AM — May 28 8:20 AM, Bolton, Weather by CustomWeather, © 2015

Note: Actual official high and low records may vary slightly from our data, if they occured in-between our weather recording intervals... More about our weather records

Advertising

Bolton weather history for previous 24 hours

 ConditionsComfort  
Time TempWeatherWind HumidityBarometerVisibility
8:20 AM
Thu, May 28
50 °FScattered clouds.20 mph71%29.89 "HgN/A
7:50 AM48 °FScattered showers. Scattered clouds.16 mph82%29.89 "HgN/A
7:20 AM48 °FScattered clouds.14 mph82%29.89 "HgN/A
6:50 AM48 °FScattered clouds.8 mph82%29.89 "HgN/A
6:20 AM48 °FScattered showers. Scattered clouds.8 mph82%29.89 "HgN/A
5:50 AM46 °FScattered showers. Passing clouds.10 mph93%29.89 "HgN/A
5:20 AM46 °FOvercast.10 mph93%29.86 "HgN/A
4:20 AM48 °FLight rain. Passing clouds.12 mph87%29.86 "HgN/A
3:50 AM48 °FLight rain. Mostly cloudy.12 mph87%29.86 "HgN/A
3:20 AM48 °FPartly cloudy.12 mph87%29.86 "HgN/A
2:50 AM48 °FPassing clouds.10 mph87%29.86 "HgN/A
2:20 AM50 °FPassing clouds.14 mph82%29.86 "HgN/A
1:50 AM52 °FPartly cloudy.12 mph82%29.86 "HgN/A
1:20 AM52 °FLight rain. Partly cloudy.12 mph82%29.89 "HgN/A
12:50 AM52 °FLight rain. Partly cloudy.15 mph88%29.86 "HgN/A
12:20 AM50 °FPassing clouds.13 mph94%29.86 "HgN/A
11:50 PM
Wed, May 27
50 °FPassing clouds.12 mph94%29.89 "HgN/A
11:20 PM50 °FPassing clouds.13 mph88%29.89 "HgN/A
10:50 PM50 °FPassing clouds.15 mph88%29.89 "HgN/A
10:20 PM50 °FPassing clouds.12 mph82%29.89 "HgN/A
9:50 PM50 °FPartly sunny.12 mph82%29.92 "HgN/A
9:20 PM50 °FPartly sunny.14 mph82%29.92 "HgN/A
8:50 PM50 °FPartly sunny.16 mph82%29.92 "HgN/A
8:20 PM50 °FPartly sunny.21 mph82%29.92 "HgN/A
7:50 PM52 °FScattered clouds.15 mph77%29.92 "HgN/A
7:20 PM52 °FPartly sunny.15 mph77%29.95 "HgN/A
6:50 PM52 °FLight rain. Scattered clouds.10 mph82%29.95 "HgN/A
6:20 PM52 °FLight rain. Broken clouds.9 mph88%29.98 "HgN/A
5:50 PM52 °FLight rain. Scattered clouds.13 mph82%29.98 "HgN/A
5:20 PM52 °FRain. Partly sunny.14 mph88%30.01 "Hg6 mi
4:50 PM54 °FRain. Partly sunny.15 mph88%30.04 "Hg6 mi
4:20 PM57 °FRain. Scattered clouds.13 mph72%30.04 "HgN/A
3:50 PM59 °FPassing clouds.14 mph63%30.04 "HgN/A
3:20 PM59 °FScattered clouds.12 mph59%30.04 "HgN/A
2:50 PM59 °FBroken clouds.14 mph63%30.07 "HgN/A
2:20 PM61 °FBroken clouds.10 mph59%30.09 "HgN/A
1:50 PM61 °FScattered clouds.13 mph59%30.09 "HgN/A
1:20 PM61 °FBroken clouds.9 mph59%30.12 "HgN/A
12:50 PM59 °FBroken clouds.9 mph59%30.15 "HgN/A
12:20 PM57 °FBroken clouds.9 mph63%30.18 "HgN/A
11:50 AM57 °FScattered clouds.10 mph63%30.18 "HgN/A
11:20 AM55 °FScattered clouds.8 mph63%30.18 "HgN/A
10:50 AM54 °FScattered clouds.8 mph72%30.21 "HgN/A
10:20 AM52 °FPartly sunny.6 mph77%30.21 "HgN/A
9:50 AM52 °FPartly sunny.5 mph77%30.24 "HgN/A
9:20 AM50 °FPartly sunny.5 mph82%30.24 "HgN/A
Weather by CustomWeather, © 2015

See weather overviewHow to use our weather pages